This demonstration page uses our WeatherBlox Daily Observations layout. Learn more.

Left ArrowRight Arrow

31.84235, -102.49876

Hourly Observations for March 20, 2018

Temp ( °F °C ) Dew Point ( °F °C ) Humidity (%) Winds ( mph kmh ) Pressure ( in mb ) Visibility ( mi km ) Precip ( " mm )
12:53 am 00:53 Clear 49 9.4 25 -3.9 39 39 NE 12 19 29.98 1015 10 16 0.00 0.00
1:53 am 01:53 Clear 45 7.2 25 -3.9 46 46 NE 9 15 29.99 1016 10 16 0.00 0.00
2:53 am 02:53 Clear 41 5 25 -3.9 53 53 NE 8 13 30.02 1017 10 16 0.00 0.00
3:53 am 03:53 Clear 40 4.4 25 -3.9 55 55 NNE 8 13 30.03 1017 10 16 0.00 0.00
4:53 am 04:53 Clear 38 3.3 26 -3.3 62 62 NNE 7 11 30.03 1017 10 16 0.00 0.00
5:53 am 05:53 Clear 37 2.8 25 -3.9 62 62 NNE 7 11 30.04 1017 10 16 0.00 0.00
6:53 am 06:53 Clear 35 1.7 25 -3.9 67 67 N 5 7 30.07 1018 10 16 0.00 0.00
7:53 am 07:53 Sunny 33 0.6 24 -4.4 70 70 N 7 11 30.10 1019 10 16 0.00 0.00
8:53 am 08:53 Sunny 40 4.4 26 -3.3 58 58 N 8 13 30.11 1020 10 16 0.00 0.00
9:53 am 09:53 Sunny 46 7.8 27 -2.8 47 47 NNE 6 9 30.13 1020 10 16 0.00 0.00
10:53 am 10:53 Sunny 49 9.4 26 -3.3 41 41 Calm 30.13 1020 10 16 0.00 0.00
11:53 am 11:53 Sunny 51 10.6 24 -4.4 35 35 VRB 3 6 30.12 1020 10 16 0.00 0.00
12:01 pm 12:01 Mostly Sunny 52 11.1 24 -4.4 34 34 VRB 5 7 30.15 1021 10 16 0.00 0.00
12:53 pm 12:53 Sunny 56 13.3 24 -4.4 29 29 VRB 5 7 30.10 1019 10 16 0.00 0.00
1:53 pm 13:53 Sunny 59 15 22 -5.6 24 24 VRB 6 9 30.06 1018 10 16 0.00 0.00
2:53 pm 14:53 Sunny 62 16.7 17 -8.3 17 17 VRB 5 7 30.02 1017 10 16 0.00 0.00
3:53 pm 15:53 Sunny 63 17.2 18 -7.8 17 17 VRB 3 6 29.99 1016 10 16 0.00 0.00
4:53 pm 16:53 Sunny 66 18.9 17 -8.3 15 15 WSW 10 17 29.96 1015 10 16 0.00 0.00
5:53 pm 17:53 Sunny 67 19.4 16 -8.9 14 14 undefined N/A 29.94 1014 10 16 0.00 0.00
6:53 pm 18:53 Sunny 67 19.4 13 -10.6 12 12 SSE 7 11 29.95 1014 10 16 0.00 0.00
7:53 pm 19:53 Sunny 64 17.8 15 -9.4 15 15 SSW 8 13 29.95 1014 10 16 0.00 0.00
8:53 pm 20:53 Clear 58 14.4 15 -9.4 18 18 Calm 29.96 1015 10 16 0.00 0.00
9:53 pm 21:53 Clear 57 13.9 16 -8.9 20 20 SE 7 11 29.96 1015 10 16 0.00 0.00
10:53 pm 22:53 Clear 53 11.7 17 -8.3 24 24 SSE 9 15 29.97 1015 10 16 0.00 0.00
11:53 pm 23:53 Clear 53 11.7 19 -7.2 26 26 SSE 7 11 29.97 1015 10 16 0.00 0.00

Powered by AerisWeather